Powrót do katalogu

DELTA 1 DEB

AktywnyLEO
NORAD 7177·DEBRIS·🇺🇸 United States

Wystrzelony Nov 6, 1973 z Vandenberg Space Force Base

Loading…

Następne Przeloty (najbliższe 24 godziny)

TLE

ŚwieżeSource: Space-Track

Epoka: Sep 13, 2026, 22:49 UTC

1 07177U 73086EP  26256.95101888  .00000629  00000-0  15255-2 0  9994
2 07177 102.0372 282.4768 0241611 144.4569 293.9989 13.17160860516671

Śledź DELTA 1 DEB w czasie rzeczywistym z AllMySat

Download on the App Store